Date,TemperatureHighF,TemperatureAvgF,TemperatureLowF,DewpointHighF,DewpointAvgF,DewpointLowF,HumidityHigh,HumidityAvg,HumidityLow,PressureMaxIn,PressureMinIn,WindSpeedMaxMPH,WindSpeedAvgMPH,GustSpeedMaxMPH,PrecipitationSumIn
2013-1-1,45.9,40.5,35.8,31.7,27.6,21.5,69,60,53,30.01,29.88,3,0,4,0.00
2013-1-2,39.7,33.5,26.6,28.5,16.9,8.3,67,51,31,30.23,29.98,5,1,8,0.00
2013-1-3,39.4,29.6,23.4,19.7,15.2,11.7,68,55,41,30.25,30.13,4,0,7,0.00
2013-1-4,44.2,34.9,25.2,24.3,19.5,16.0,71,54,42,30.20,30.08,9,1,13,0.00
2013-1-5,46.0,36.0,26.8,28.3,22.4,16.2,75,58,41,30.37,30.13,4,0,7,0.01
2013-1-6,53.4,42.1,29.7,37.4,29.3,24.7,87,62,34,30.20,30.00,5,0,7,0.00
2013-1-7,49.3,40.4,27.5,30.6,26.6,20.2,77,58,42,30.43,30.12,7,1,14,0.00
2013-1-8,54.1,38.9,25.9,35.8,29.2,19.9,86,70,42,30.42,30.34,8,0,11,0.00
2013-1-9,53.1,41.5,29.7,42.7,34.5,26.6,90,77,45,30.38,30.21,4,0,8,0.00
2013-1-10,55.6,45.7,38.1,32.8,28.6,24.9,68,52,32,30.58,30.35,4,1,8,0.00
2013-1-11,44.1,40.1,32.9,40.7,34.1,26.4,93,79,65,30.50,30.08,2,0,3,0.02
2013-1-12,57.2,46.1,41.0,46.0,41.5,38.0,94,85,65,30.16,30.08,3,0,4,0.01
2013-1-13,48.6,45.2,41.2,46.1,42.7,38.5,92,91,90,30.13,29.97,3,0,4,0.00
2013-1-14,59.5,52.8,40.8,58.1,46.3,34.6,96,79,56,30.28,29.93,7,1,8,0.13
2013-1-15,41.0,39.0,35.8,37.7,35.1,31.0,90,86,80,30.33,30.14,4,1,7,0.70
2013-1-16,41.0,38.0,34.7,38.3,34.3,30.4,90,87,83,30.15,29.82,5,1,7,0.27
2013-1-17,45.1,41.0,37.0,39.1,33.4,28.0,91,75,54,30.12,29.95,6,0,8,0.02
2013-1-18,39.6,33.7,26.6,29.6,14.5,1.0,74,47,22,30.49,30.00,8,1,11,0.00
2013-1-19,54.5,39.8,28.4,27.9,22.7,15.1,66,52,29,30.43,29.96,8,1,10,0.00
2013-1-20,60.6,46.9,34.0,30.9,21.2,6.2,59,38,21,30.08,29.79,7,1,11,0.00
2013-1-21,42.3,35.7,29.8,31.8,18.4,8.9,70,49,34,30.10,29.78,6,2,10,0.00
2013-1-22,52.0,21.8,16.5,27.5,-5.6,-11.3,97,28,22,30.29,29.90,12,3,17,1.28
2013-1-23,27.0,20.0,10.8,0.5,-4.9,-9.5,58,33,22,30.34,30.15,7,1,12,0.00
2013-1-24,28.4,20.9,15.4,12.5,2.9,-6.5,74,47,23,30.51,30.09,8,1,14,0.00
2013-1-25,25.0,19.2,13.3,14.2,3.4,-5.9,76,52,25,30.50,30.07,3,0,7,0.00
2013-1-26,35.2,26.4,20.1,16.9,14.6,12.1,75,61,44,30.43,30.08,4,0,6,0.03
2013-1-27,39.9,27.2,16.9,20.6,15.5,9.8,77,63,35,30.60,30.42,4,0,8,0.00
2013-1-28,40.8,35.1,27.5,37.4,29.4,20.0,91,80,64,30.51,30.03,3,0,5,0.03
2013-1-29,62.4,47.2,33.3,47.8,39.8,29.8,92,77,55,30.12,29.98,3,0,5,0.07
2013-1-30,70.5,55.2,42.8,59.0,49.4,39.6,92,82,65,29.98,29.24,9,1,17,1.33
2013-1-31,61.5,44.3,28.0,58.0,25.6,8.1,91,50,25,29.92,29.14,9,2,22,0.62
2013-2-1,34.0,27.1,19.2,26.1,7.1,-4.3,85,44,24,30.37,29.80,12,0,23,0.00
2013-2-2,33.6,24.9,15.8,22.3,7.0,-3.9,79,48,24,30.38,30.01,3,0,7,0.00
2013-2-3,37.2,29.1,21.4,26.8,21.7,16.6,83,74,53,30.01,29.82,6,0,11,0.02
2013-2-4,45.9,30.3,22.3,21.5,11.6,3.9,64,46,31,30.11,29.90,8,0,13,4.16
2013-2-5,39.0,33.9,29.8,26.9,23.9,20.5,79,67,57,29.93,29.85,0,0,0,0.00
2013-2-6,47.1,36.5,27.5,28.6,24.0,16.2,83,62,39,30.36,29.93,2,0,8,0.00
2013-2-7,39.7,33.2,25.0,27.3,20.9,15.9,73,61,48,30.45,30.20,3,0,10,0.00
2013-2-8,43.3,37.8,33.1,38.8,31.3,19.3,88,78,51,30.20,29.69,6,0,13,0.34
2013-2-9,48.7,33.1,27.9,19.4,14.4,9.1,56,46,34,30.38,29.86,27,1,30,0.05
2013-2-10,43.2,32.5,21.0,29.2,14.1,6.5,73,49,24,30.49,30.25,2,0,6,0.00
2013-2-11,54.7,45.6,37.0,48.8,41.2,29.5,90,85,74,30.25,29.68,4,0,9,0.31
2013-2-12,57.9,47.1,38.5,42.7,28.0,21.5,77,49,27,29.97,29.78,5,0,13,0.00
2013-2-13,48.7,38.0,31.6,33.8,27.5,22.9,86,67,46,29.95,29.64,4,0,5,0.17
2013-2-14,51.3,38.2,31.1,32.0,27.8,20.1,86,69,30,30.01,29.75,4,0,6,0.02
2013-2-15,57.2,43.3,31.5,36.8,31.9,27.1,84,66,43,30.03,29.88,4,0,11,0.05
2013-2-16,37.8,35.5,32.4,33.4,27.7,14.9,85,74,47,30.01,29.79,3,0,7,0.06
2013-2-17,34.5,28.7,24.3,15.8,7.2,-0.2,56,40,26,30.18,29.79,10,2,14,0.00
2013-2-18,41.9,30.2,18.5,25.6,7.4,-1.6,72,40,21,30.37,30.17,4,1,11,0.00
2013-2-19,45.3,39.0,30.9,39.5,29.0,17.7,85,68,48,30.17,29.71,9,1,18,0.11
2013-2-20,38.1,33.0,25.0,23.3,10.6,0.7,56,39,28,30.14,29.82,9,3,18,0.00
2013-2-21,40.5,30.6,23.7,13.7,9.3,5.0,52,41,27,30.32,30.11,8,2,16,0.00
2013-2-22,34.7,31.7,28.6,28.5,19.9,12.7,83,62,48,30.38,30.21,4,1,8,0.06
2013-2-23,45.5,39.2,32.7,41.3,35.2,28.1,88,85,83,30.21,29.78,4,1,8,0.11
2013-2-24,53.1,43.2,32.0,40.0,29.4,16.2,88,61,30,30.09,29.77,12,2,17,0.00
2013-2-25,48.6,35.8,26.6,25.0,19.9,14.7,75,53,35,30.21,30.09,5,1,8,0.29
2013-2-26,46.6,37.5,27.3,42.6,30.5,19.5,86,76,60,30.22,29.58,7,2,11,0.77
2013-2-27,58.6,48.4,41.2,42.8,37.3,29.6,90,67,45,29.68,29.47,5,1,11,0.01
2013-2-28,51.1,43.7,39.2,36.9,28.6,20.5,84,56,31,29.71,29.61,6,1,9,0.01
2013-3-1,48.2,41.8,37.6,29.6,26.5,22.1,67,55,44,29.85,29.69,5,1,13,0.00
2013-3-2,39.4,34.5,29.3,22.9,18.8,15.2,64,53,42,29.86,29.78,6,1,11,0.00
2013-3-3,41.0,34.0,27.5,20.1,16.5,14.0,61,49,39,29.87,28.83,9,2,14,1.09
2013-3-4,44.6,34.9,27.1,17.4,13.5,8.9,54,42,31,30.01,29.86,9,2,15,0.00
2013-3-5,50.4,36.9,25.0,28.3,17.7,9.7,65,47,23,30.04,29.81,8,1,11,0.03
2013-3-6,40.5,37.4,33.6,34.4,31.5,24.4,86,80,55,29.91,29.57,26,10,34,1.44
2013-3-7,52.2,44.5,37.6,26.7,22.8,20.1,58,42,33,30.12,30.03,13,5,20,0.00
2013-3-8,48.9,42.4,33.4,26.1,23.0,18.6,62,47,34,30.23,30.08,14,5,21,0.00
2013-3-9,63.9,46.7,34.9,23.7,19.5,14.9,50,36,18,30.32,30.22,9,2,15,0.00
2013-3-10,61.9,46.4,32.7,38.1,25.5,17.5,86,49,20,30.33,30.23,8,2,13,0.00
2013-3-11,57.7,48.9,42.8,46.2,41.2,37.6,84,75,64,30.25,29.95,10,3,18,0.00
2013-3-12,61.5,51.8,42.8,49.8,42.2,27.9,84,71,50,29.97,29.68,12,4,18,0.75
2013-3-13,53.1,42.5,31.3,31.9,23.2,14.7,74,48,24,30.03,29.86,11,3,16,0.00
2013-3-14,47.7,39.3,31.6,16.1,11.5,8.1,51,32,22,30.09,29.98,12,5,21,0.00
2013-3-15,56.7,42.9,28.8,30.6,18.9,12.4,58,40,22,30.08,29.77,11,2,20,0.00
2013-3-16,56.5,46.0,37.6,40.1,33.0,28.6,75,61,47,29.91,29.63,13,3,14,0.00
2013-3-17,41.5,37.7,34.2,30.6,26.8,21.9,76,65,51,30.26,29.90,11,3,17,0.00
2013-3-18,39.2,37.0,33.3,34.5,26.3,14.7,86,67,41,30.32,29.86,11,3,13,0.25
2013-3-19,60.4,46.0,37.2,39.7,29.9,9.4,87,60,20,29.89,29.69,10,3,17,0.01
2013-3-20,54.1,44.8,35.6,32.0,14.3,7.0,64,30,20,29.98,29.75,15,3,23,0.00
2013-3-21,44.4,35.5,29.3,22.9,10.1,0.0,62,36,21,29.88,29.72,11,5,19,0.00
2013-3-22,48.9,36.8,28.2,18.8,12.5,4.1,47,37,24,29.99,29.85,11,4,15,0.00
2013-3-23,53.6,40.9,27.1,23.3,18.9,13.4,61,43,25,30.01,29.89,10,3,18,0.00
2013-3-24,43.2,36.9,29.5,30.0,21.5,16.9,82,55,42,29.99,29.65,8,2,14,0.01
2013-3-25,37.2,34.2,32.5,31.9,29.3,27.9,84,82,77,29.67,29.49,5,1,8,0.45
2013-3-26,50.7,41.3,31.6,32.8,27.8,22.6,84,61,35,29.95,29.67,7,2,10,0.06
2013-3-27,50.9,44.1,38.7,30.9,26.0,20.9,62,49,36,30.09,29.95,11,4,16,0.00
2013-3-28,50.7,43.5,36.1,30.1,26.2,21.8,65,51,33,30.20,30.06,11,4,14,0.00
2013-3-29,57.9,48.0,41.9,28.2,25.5,21.1,56,42,27,30.23,30.09,9,2,13,1.53
2013-3-30,61.9,48.0,36.1,32.2,27.6,21.8,69,47,25,30.21,30.09,8,1,10,0.00
2013-3-31,54.3,48.2,40.1,47.3,40.9,30.9,85,76,60,30.12,29.72,8,2,14,0.02
2013-4-1,67.6,51.9,41.7,46.1,36.0,18.9,87,58,35,29.96,29.68,11,3,17,0.02
2013-4-2,51.1,42.0,32.2,19.1,12.6,7.1,46,30,21,30.15,29.96,13,3,18,0.00
2013-4-3,53.4,41.6,29.3,18.0,12.4,6.4,51,31,21,30.37,30.15,14,3,20,0.00
2013-4-4,50.5,39.1,25.9,33.7,18.2,8.9,84,44,22,30.41,30.09,7,2,14,0.03
2013-4-5,67.6,50.4,37.2,37.8,28.9,16.6,87,53,19,30.09,29.78,10,2,15,0.19
2013-4-6,57.0,46.8,38.3,35.0,21.1,14.2,67,38,21,30.32,30.02,11,3,14,0.00
2013-4-7,65.5,51.7,39.2,45.4,39.5,32.1,83,64,46,30.29,29.98,11,3,17,0.00
2013-4-8,80.8,65.7,55.2,52.7,46.3,41.0,74,51,33,30.06,29.95,6,2,12,0.00
2013-4-9,88.7,73.3,58.5,55.7,52.3,49.2,73,49,28,30.05,29.91,11,2,18,0.00
2013-4-10,94.1,77.8,60.4,60.0,54.3,51.1,73,46,27,29.96,29.77,10,2,17,0.00
2013-4-11,83.1,68.6,53.1,61.1,55.7,49.3,88,65,43,29.88,29.75,11,3,17,0.00
2013-4-12,64.0,55.1,51.3,59.2,52.0,48.5,95,90,82,29.84,29.58,11,4,17,0.67
2013-4-13,69.1,56.0,43.3,49.6,42.9,34.0,93,65,34,29.93,29.73,9,2,14,0.00
2013-4-14,70.2,56.2,42.4,45.7,40.1,30.3,92,60,24,30.12,29.93,7,2,11,0.00
2013-4-15,63.7,57.3,52.9,48.8,46.7,44.9,83,68,55,30.28,30.11,8,2,11,0.01
2013-4-16,75.2,61.7,50.9,57.4,51.3,46.3,85,69,53,30.30,30.11,8,2,14,0.00
2013-4-17,77.2,65.2,57.7,59.2,55.0,52.1,89,71,54,30.23,30.10,10,2,15,0.00
2013-4-18,77.2,64.0,58.3,60.5,55.1,50.4,87,74,54,30.23,30.00,11,3,22,0.03
2013-4-19,76.3,65.3,52.5,62.7,57.9,48.1,86,78,60,30.01,29.57,12,2,24,0.56
2013-4-20,63.3,53.4,47.8,48.0,32.6,23.4,88,49,24,30.31,29.76,10,2,14,0.07
2013-4-21,56.7,46.8,41.0,34.6,24.6,18.3,70,43,26,30.58,30.31,10,2,13,0.00
2013-4-22,55.0,47.3,36.3,38.1,35.0,29.2,79,63,49,30.58,30.39,10,3,14,0.00
2013-4-23,64.4,51.2,45.5,43.9,40.3,37.4,85,67,42,30.40,30.11,8,3,11,0.00
2013-4-24,74.3,59.6,45.3,56.6,49.7,41.3,92,71,53,30.12,29.78,8,1,20,0.00
2013-4-25,69.8,55.9,46.4,54.3,35.9,22.9,75,49,19,30.29,29.92,8,2,11,0.01
2013-4-26,70.9,55.9,42.6,41.2,35.9,27.7,83,51,22,30.43,30.28,7,1,11,0.00
2013-4-27,74.1,57.7,40.8,47.0,36.4,24.7,86,52,18,30.41,30.28,6,1,9,0.00
2013-4-28,70.7,58.0,43.7,46.9,40.3,29.3,86,55,24,30.29,30.14,8,2,17,0.00
2013-4-29,59.2,56.2,53.4,55.4,52.1,42.9,91,86,57,30.16,30.05,11,1,15,0.46
2013-4-30,59.0,56.2,52.2,54.5,51.6,45.1,91,85,66,30.27,30.07,7,2,10,3.93
2013-5-1,72.1,58.7,50.0,47.7,41.7,29.9,83,57,23,30.41,30.26,8,2,10,0.00
2013-5-2,70.5,56.5,44.1,50.4,44.9,41.3,90,67,42,30.43,30.30,6,1,8,0.00
2013-5-3,67.3,55.3,45.1,46.9,42.8,38.7,90,65,38,30.37,30.29,7,2,11,0.00
2013-5-4,71.2,56.7,47.5,46.3,42.9,39.1,84,62,39,30.33,30.17,7,2,11,3.93
2013-5-5,64.8,53.2,46.6,46.3,41.5,37.6,81,65,46,30.24,30.14,6,2,8,0.00
2013-5-6,62.6,55.4,48.6,54.4,49.4,42.4,87,80,74,30.18,30.05,6,2,8,0.00
2013-5-7,63.0,59.7,57.6,58.5,56.0,53.7,90,87,83,30.07,29.92,8,3,11,0.98
2013-5-8,74.5,61.3,56.1,59.2,54.6,52.7,90,80,54,29.98,29.92,8,1,12,0.01
2013-5-9,76.3,63.1,51.8,57.9,54.3,49.3,93,75,50,29.98,29.90,7,1,9,0.00
2013-5-10,86.2,69.8,54.9,61.8,56.9,51.9,90,66,41,30.00,29.86,8,1,21,0.21
2013-5-11,82.4,68.3,63.0,64.2,60.7,57.2,89,78,49,29.92,29.69,7,1,11,0.32
2013-5-12,68.0,60.2,48.2,60.0,42.5,26.0,91,57,24,30.02,29.72,8,2,19,0.03
2013-5-13,62.1,51.4,40.5,37.2,29.5,21.3,82,47,23,30.14,30.01,5,1,10,0.00
2013-5-14,67.6,52.5,35.2,47.1,33.1,24.7,85,52,24,30.20,30.04,5,1,10,0.00
2013-5-15,78.3,66.9,57.2,61.5,53.4,46.2,80,63,46,30.05,29.66,8,2,12,0.00
2013-5-16,86.0,76.1,68.4,62.8,58.3,55.3,65,55,42,29.90,29.72,6,1,14,0.00
2013-5-17,85.6,71.9,60.3,56.5,50.6,39.4,81,51,23,30.15,29.89,4,1,8,0.00
2013-5-18,67.5,63.3,59.4,56.1,53.0,48.9,87,70,54,30.24,30.15,5,1,9,0.00
2013-5-19,75.6,65.6,59.5,63.5,60.2,55.8,92,83,65,30.20,30.08,3,0,5,0.01
2013-5-20,84.2,71.1,64.9,66.8,63.8,61.6,90,78,54,30.12,29.97,5,0,9,0.00
2013-5-21,87.4,73.0,65.8,68.2,64.5,62.5,89,76,51,30.00,29.87,6,1,9,5.56
2013-5-22,90.1,76.2,67.5,69.8,66.7,61.7,90,74,51,29.93,29.83,5,1,14,0.00
2013-5-23,81.5,73.6,66.0,66.7,64.0,59.2,85,72,58,29.90,29.75,9,2,14,0.09
2013-5-24,65.8,57.8,50.7,61.7,49.2,34.6,89,74,52,30.12,29.72,6,2,14,0.04
2013-5-25,67.6,55.8,44.8,41.5,36.5,33.5,66,50,32,30.14,30.04,8,2,17,0.00
2013-5-26,73.8,60.3,47.7,43.3,38.1,31.8,67,47,23,30.20,30.09,7,1,12,0.00
2013-5-27,75.4,62.9,48.9,51.2,44.2,34.9,75,53,27,30.26,30.16,4,0,6,5.69
2013-5-28,80.2,67.8,58.6,64.8,58.7,48.1,87,73,57,30.19,30.05,4,0,7,0.08
2013-5-29,92.3,77.2,65.5,69.4,64.8,61.5,87,67,43,30.11,30.05,6,1,8,0.00
2013-5-30,92.8,77.9,69.8,72.9,65.8,60.0,86,67,46,30.17,30.09,3,0,7,0.17
2013-5-31,93.4,78.9,66.0,68.3,64.8,62.2,88,65,41,30.15,30.01,8,1,14,0.01
2013-6-1,93.7,80.3,69.1,69.8,64.7,60.6,84,61,44,30.04,29.91,7,1,12,0.00
2013-6-2,88.7,78.0,68.9,69.0,65.0,61.5,87,66,49,29.93,29.82,7,2,15,0.39
2013-6-3,82.4,71.4,65.5,68.2,65.1,62.5,90,81,60,29.92,29.79,4,0,7,0.60
2013-6-4,80.6,66.9,57.0,61.6,49.8,42.1,89,58,29,30.11,29.92,5,1,8,0.00
2013-6-5,82.6,68.3,53.1,58.1,53.5,44.7,89,62,31,30.17,30.05,6,1,10,0.00
2013-6-6,75.0,68.4,62.1,63.2,58.0,52.3,89,70,58,30.09,29.86,8,1,14,0.28
2013-6-7,71.8,69.1,66.0,67.4,65.4,62.5,90,88,85,29.87,29.54,8,1,13,2.97
2013-6-8,81.1,70.0,63.9,64.6,61.9,58.7,91,77,49,30.08,29.66,4,0,7,0.01
2013-6-9,83.7,73.0,63.5,67.4,62.8,58.6,90,71,56,30.19,30.07,4,1,8,0.00
2013-6-10,80.8,73.7,70.3,72.1,67.9,62.9,88,82,71,30.10,29.79,8,1,13,0.85
2013-6-11,85.3,75.0,67.1,66.8,63.3,60.0,90,69,49,29.83,29.74,5,1,9,0.01
2013-6-12,90.3,77.8,66.0,68.6,64.0,59.8,82,64,46,29.85,29.77,7,0,10,0.00
2013-6-13,90.1,74.9,68.2,70.0,65.1,57.1,85,73,45,29.80,29.43,8,1,13,0.66
2013-6-14,79.3,68.4,59.4,57.8,54.3,49.3,85,62,42,29.95,29.55,8,2,12,0.05
2013-6-15,85.8,72.2,59.2,60.9,56.0,53.8,84,59,36,30.06,29.95,4,1,8,0.00
2013-6-16,84.9,73.2,63.1,68.0,61.8,55.8,80,68,47,30.01,29.86,5,1,11,0.00
2013-6-17,88.2,77.5,68.7,70.0,65.6,60.4,81,68,49,29.95,29.86,6,1,11,0.00
2013-6-18,78.3,73.9,69.1,69.7,67.1,63.7,88,80,70,29.91,29.78,6,1,11,0.16
2013-6-20,68.2,66.5,64.6,54.2,53.4,52.8,66,63,60,30.27,30.25,0,0,2,0.01
2013-6-21,84.0,70.6,56.5,63.2,56.1,37.3,86,63,21,30.30,30.23,5,0,8,0.00
2013-6-22,88.5,75.1,62.8,66.3,62.5,59.2,89,67,44,30.25,30.14,5,1,12,0.00
2013-6-23,84.7,74.6,66.9,71.9,67.1,61.6,88,78,59,30.19,30.06,4,0,5,0.13
2013-6-24,97.2,79.1,70.9,72.9,68.6,64.7,87,72,44,30.12,29.99,4,1,7,0.00
2013-6-25,96.8,81.2,68.7,71.0,67.7,61.2,89,66,42,30.04,29.88,4,1,8,0.03
2013-6-26,95.7,77.9,67.5,74.7,68.1,64.0,91,74,47,30.06,29.78,7,1,8,12.81
2013-6-27,87.4,75.7,68.9,72.8,68.4,65.5,90,79,61,29.82,29.60,8,1,14,0.06
2013-6-28,91.0,75.6,69.1,70.9,67.7,64.6,90,78,49,29.62,29.48,5,1,10,0.80
2013-6-29,90.5,77.3,66.4,72.0,67.3,61.8,92,74,41,29.69,29.51,4,1,9,0.00
2013-6-30,89.1,77.4,72.0,73.0,71.0,66.3,89,81,56,29.84,29.69,4,1,7,0.52
2013-7-1,83.7,77.1,72.0,72.4,70.2,67.0,87,79,68,29.99,29.84,7,1,18,0.00
2013-7-2,84.0,76.4,72.0,72.3,69.5,67.2,86,80,65,30.18,29.99,7,1,12,0.25
2013-7-3,89.4,78.0,70.9,74.7,70.0,66.8,90,77,61,30.23,30.17,7,1,12,0.01
2013-7-4,90.5,80.1,73.0,73.4,70.7,69.2,89,74,53,30.26,30.17,6,1,9,0.00
2013-7-5,92.1,81.5,73.6,71.9,69.9,67.9,87,69,50,30.23,30.12,9,1,14,0.00
2013-7-6,95.9,82.7,75.2,72.8,70.3,68.6,84,68,46,30.18,30.06,7,1,11,0.00
2013-7-7,95.7,81.1,72.0,73.0,69.4,65.8,84,69,47,30.11,29.98,8,1,14,0.00
2013-7-8,88.3,77.3,70.7,70.2,67.5,64.7,89,73,48,30.09,30.02,4,0,7,0.01
2013-7-9,89.6,78.8,71.8,73.3,70.0,66.3,86,75,54,30.09,29.99,4,0,5,0.00
2013-7-10,90.1,79.8,73.2,74.5,71.5,67.7,87,77,57,30.01,29.85,6,1,18,0.02
2013-7-11,88.2,77.2,73.0,70.7,68.6,66.1,87,76,49,29.92,29.83,4,0,9,0.00
2013-7-12,74.7,70.3,66.7,69.5,66.5,64.0,91,88,81,30.00,29.86,6,1,9,1.21
2013-7-13,89.2,76.7,68.2,73.1,69.2,65.8,93,79,56,30.27,29.99,4,1,6,0.03
2013-7-14,91.8,81.0,73.9,74.8,71.7,67.1,91,75,56,30.33,30.26,4,0,7,0.01
2013-7-15,97.3,82.1,71.4,73.7,70.9,67.9,90,71,44,30.30,30.16,3,0,6,0.00
2013-7-16,97.2,84.2,76.8,73.4,70.9,66.1,87,66,42,30.22,30.14,5,0,6,0.00
2013-7-17,97.9,83.7,73.8,74.1,70.8,67.0,87,68,42,30.20,30.08,3,0,4,0.00
2013-7-18,100.2,85.9,75.0,78.3,73.8,71.2,90,69,44,30.11,29.98,4,0,9,0.01
2013-7-19,98.4,86.6,78.3,76.7,74.4,71.5,86,69,47,30.00,29.86,8,1,17,0.00
2013-7-20,96.4,84.6,78.4,75.6,73.3,69.3,85,70,47,29.89,29.77,4,1,11,0.00
2013-7-21,97.2,79.7,73.2,75.0,70.6,67.8,95,76,43,29.93,29.86,6,0,8,0.24
2013-7-22,91.2,80.3,72.5,74.9,72.7,69.5,95,79,56,29.92,29.75,4,1,8,0.00
2013-7-23,89.6,78.3,72.7,73.2,70.3,66.5,95,78,53,29.76,29.62,4,0,7,0.06
2013-7-24,86.4,76.6,69.3,69.3,65.6,57.4,88,70,51,29.90,29.66,4,1,6,0.00
2013-7-25,79.9,70.3,63.3,63.5,58.5,52.6,86,67,56,30.02,29.90,5,2,7,0.00
2013-7-26,86.9,73.7,63.7,66.1,62.1,58.5,90,69,45,30.08,30.01,8,0,10,0.00
2013-7-27,87.3,76.0,68.9,70.7,66.7,62.2,88,74,56,30.05,29.92,8,1,14,0.00
2013-7-28,88.9,77.1,71.2,73.5,68.3,64.2,87,75,54,29.96,29.87,6,1,8,0.00
2013-7-29,87.1,73.1,64.2,68.6,58.6,52.1,88,64,34,30.16,29.96,6,1,10,0.00
2013-7-30,84.4,71.9,59.9,62.8,59.1,54.0,90,67,39,30.22,30.13,3,0,5,0.00
2013-7-31,86.4,73.4,65.1,68.3,64.9,62.1,92,76,50,30.15,30.01,5,1,11,0.00
2013-8-1,84.0,73.2,68.0,73.8,69.1,65.3,96,87,65,30.01,29.79,4,0,7,0.58
2013-8-2,89.1,76.0,66.7,69.8,66.1,62.5,96,74,45,29.95,29.83,5,0,9,0.00
2013-8-3,78.4,70.7,66.9,70.5,66.1,63.9,94,86,71,29.97,29.90,2,0,3,0.03
2013-8-4,82.9,71.4,61.5,65.5,59.1,53.2,96,69,42,30.01,29.88,4,1,7,0.00
2013-8-5,83.5,69.5,59.0,61.3,57.0,53.5,85,66,42,30.09,30.00,5,1,7,0.00
2013-8-6,73.6,69.6,66.0,66.5,63.6,58.2,89,81,70,30.08,29.99,6,1,11,0.04
2013-8-7,84.9,75.3,69.8,73.2,69.1,66.3,91,81,67,30.07,29.99,8,1,12,0.00
2013-8-8,88.5,79.1,73.0,74.0,71.3,68.9,89,78,57,30.03,29.97,7,2,12,0.00
2013-8-9,91.9,80.7,75.4,76.4,73.4,69.5,94,80,55,29.97,29.83,8,1,14,0.82
2013-8-10,89.1,76.1,68.7,73.7,67.7,60.8,95,77,39,30.07,29.92,3,0,4,0.01
2013-8-11,84.9,74.7,68.0,70.9,67.5,64.8,94,79,62,30.10,30.00,4,0,5,0.00
2013-8-12,90.7,77.3,69.3,73.6,69.7,67.0,95,79,52,30.03,29.90,3,0,4,0.00
2013-8-13,86.9,77.8,70.7,73.7,70.1,66.1,94,78,54,29.90,29.72,5,1,9,0.33
2013-8-14,77.4,67.0,59.0,69.1,55.0,49.2,95,67,44,30.08,29.78,4,1,10,0.00
2013-8-15,81.7,65.6,55.6,56.6,52.9,46.2,88,67,34,30.17,30.08,4,0,6,0.00
2013-8-16,82.4,67.5,55.6,60.2,56.3,49.9,94,71,35,30.19,30.12,4,0,6,0.00
2013-8-17,82.4,69.6,59.0,62.4,58.9,54.0,94,71,43,30.25,30.18,4,1,6,0.00
2013-8-18,72.1,68.4,64.4,65.2,62.3,59.0,94,81,68,30.21,30.15,4,1,7,0.07
2013-8-19,76.5,68.7,62.1,66.4,63.2,60.3,96,84,66,30.17,30.06,0,0,0,0.00
2013-8-20,88.5,74.6,63.0,71.0,67.0,61.5,96,79,53,30.15,30.07,5,0,8,0.00
2013-8-21,90.7,77.8,68.2,74.0,70.1,66.4,95,79,55,30.19,30.06,4,1,7,0.01
2013-8-22,92.3,79.0,70.7,72.5,68.5,63.7,94,73,42,30.09,29.92,4,1,8,0.01
2013-8-23,78.1,70.8,61.7,69.8,64.3,58.0,93,80,63,30.10,29.92,4,0,5,0.01
2013-8-24,84.0,70.4,60.8,64.3,59.6,55.5,92,71,41,30.33,30.09,5,1,7,0.00
2013-8-25,84.4,70.3,59.0,65.1,56.1,46.5,94,66,29,30.41,30.26,5,1,8,0.00
2013-8-26,91.9,74.5,61.3,65.1,60.4,56.1,84,64,35,30.29,29.98,5,1,9,0.00
2013-8-27,92.1,78.2,69.3,71.4,68.0,63.9,90,73,47,29.98,29.86,4,1,8,0.01
2013-8-28,86.0,75.1,71.1,75.6,70.8,68.4,94,87,63,29.90,29.80,4,0,8,0.05
2013-8-29,87.1,75.9,71.2,70.2,68.8,65.1,94,80,53,30.02,29.83,4,2,6,0.00
2013-8-30,88.9,76.2,66.9,72.0,67.9,64.0,94,77,51,30.03,29.88,7,1,12,0.00
2013-8-31,92.8,79.5,70.5,73.0,70.1,67.5,92,75,49,29.91,29.78,7,1,11,0.00
2013-9-1,91.4,79.9,69.8,74.4,70.8,67.1,93,75,55,29.84,29.75,4,1,8,0.00
2013-9-2,93.2,80.5,71.8,75.3,70.8,67.1,95,75,46,29.79,29.70,7,1,8,0.02
2013-9-3,87.6,78.1,68.2,71.6,63.8,55.5,92,64,40,29.94,29.70,5,1,8,0.00
2013-9-4,86.7,70.4,57.7,62.2,57.6,53.3,91,66,35,30.07,29.94,7,1,9,0.00
2013-9-5,87.6,72.8,61.3,62.4,58.7,49.5,92,64,42,30.12,29.98,7,1,9,0.00
2013-9-6,79.3,66.6,58.8,53.4,49.8,44.5,80,56,34,30.25,30.12,5,1,8,0.00
2013-9-7,83.5,67.9,54.1,63.2,57.6,52.3,95,72,42,30.14,29.91,5,1,9,18.12
2013-9-8,89.1,75.4,64.0,66.9,63.4,56.8,95,69,43,30.04,29.85,5,1,7,0.00
2013-9-9,80.1,71.4,63.0,68.6,58.3,49.7,85,64,53,30.19,30.04,5,2,8,0.00
2013-9-10,91.9,78.9,69.4,74.5,71.2,67.7,96,79,55,30.18,30.07,6,1,8,0.00
2013-9-11,95.4,81.8,72.3,75.9,72.5,70.1,96,76,49,30.14,29.99,4,1,13,0.00
2013-9-12,91.8,76.1,69.4,73.8,69.5,65.6,98,82,55,29.99,29.73,8,1,11,1.04
2013-9-13,80.6,70.3,62.8,69.0,60.2,51.1,99,74,39,29.90,29.68,6,1,9,0.00
2013-9-14,71.8,61.2,52.5,52.8,48.7,45.6,90,65,41,30.15,29.90,4,1,9,0.00
2013-9-15,78.1,62.9,49.1,59.3,53.3,47.5,99,74,38,30.22,30.08,7,1,11,0.00
2013-9-16,75.2,65.2,58.1,60.7,57.1,53.9,87,76,51,30.22,30.02,4,0,7,0.00
2013-9-17,69.4,58.3,50.9,54.9,45.8,38.5,89,65,36,30.41,30.21,6,2,10,0.00
2013-9-18,75.9,57.8,46.4,53.9,48.2,35.3,98,75,25,30.34,30.18,4,0,7,0.00
2013-9-19,79.9,62.5,49.3,59.6,54.2,48.7,99,78,47,30.19,30.06,4,1,9,0.00
2013-9-20,82.8,66.0,52.9,62.2,57.9,52.3,99,78,50,30.09,29.95,9,1,12,0.00
2013-9-21,78.6,67.5,59.7,66.9,62.3,58.0,97,84,61,29.98,29.67,11,1,17,0.78
2013-9-22,75.2,64.5,54.9,62.6,55.6,48.8,99,76,45,29.93,29.70,5,0,8,0.00
2013-9-23,71.1,57.8,50.5,49.8,46.5,41.0,93,69,42,30.07,29.92,6,1,8,0.00
2013-9-24,76.8,57.9,45.1,52.7,47.8,44.3,98,73,34,30.09,29.92,4,0,6,19.94
2013-9-25,79.5,60.2,48.9,56.2,50.3,42.2,96,74,31,29.96,29.86,2,0,4,0.00
2013-9-26,77.4,62.2,54.0,60.9,54.7,51.9,97,79,45,30.06,29.90,4,0,5,0.00
2013-9-27,75.4,62.6,54.9,61.1,56.2,53.4,98,81,51,30.23,30.06,3,0,4,0.00
2013-9-28,72.9,61.6,55.4,58.4,55.1,52.4,97,81,53,30.29,30.20,4,1,6,0.00
2013-9-29,76.5,61.3,52.3,60.2,54.4,49.8,98,81,44,30.20,30.04,4,0,4,0.00
2013-9-30,77.7,61.6,50.7,58.9,53.9,50.2,98,79,41,30.07,29.96,4,0,7,0.00
2013-10-1,85.3,65.9,53.8,63.3,58.5,52.8,97,80,45,30.05,29.94,4,0,8,0.00
2013-10-2,86.9,71.5,60.3,64.0,60.6,57.4,92,71,42,30.06,29.97,4,0,8,0.00
2013-10-3,84.0,71.4,60.8,67.4,63.0,59.1,95,76,53,30.10,30.02,3,0,5,0.00
2013-10-4,89.6,72.8,61.2,69.3,64.9,60.3,98,79,45,30.07,29.98,4,0,8,0.00
2013-10-5,90.1,75.1,65.8,69.5,66.5,64.7,97,77,46,30.07,29.99,2,0,4,0.00
2013-10-6,88.7,75.2,66.2,70.3,67.6,65.3,98,79,52,30.02,29.92,11,1,20,0.00
2013-10-7,77.5,67.7,54.0,71.7,65.0,53.1,99,92,71,30.04,29.79,8,1,17,0.61
2013-10-8,65.7,55.9,48.7,53.3,49.3,44.0,99,81,54,30.26,30.03,6,1,10,0.01
2013-10-9,61.0,58.9,54.3,53.3,51.2,47.3,89,76,63,30.29,30.17,10,3,14,0.03
2013-10-10,58.6,56.5,54.7,58.4,55.8,52.9,99,98,89,30.17,29.94,7,3,10,0.67
2013-10-11,63.0,61.4,58.3,61.8,60.4,58.0,99,97,93,29.97,29.88,7,3,11,1.60
2013-10-12,65.5,62.0,59.5,61.3,58.9,55.3,96,90,74,30.15,29.95,6,2,10,0.17
2013-10-13,65.5,60.8,57.4,58.8,56.1,52.5,93,85,72,30.32,30.14,6,2,8,0.03
2013-10-14,69.3,59.6,52.7,56.4,52.6,50.4,92,78,58,30.31,30.20,4,1,5,3.44
2013-10-15,73.8,59.7,50.7,57.1,51.1,43.3,95,76,36,30.23,30.06,3,0,4,0.00
2013-10-16,69.3,63.6,59.9,60.5,58.0,54.9,92,82,72,30.06,29.90,3,0,4,0.00
2013-10-17,78.6,66.6,59.4,64.9,61.1,57.7,96,83,59,29.90,29.70,5,1,8,0.00
2013-10-18,70.5,57.9,48.4,57.7,46.8,42.3,92,69,39,30.00,29.78,6,1,8,0.00
2013-10-19,66.0,55.5,45.9,58.6,51.2,45.0,97,86,55,29.98,29.76,4,1,9,0.02
2013-10-20,66.0,54.2,44.2,50.9,40.5,34.0,94,62,34,30.08,29.83,4,1,8,0.00
2013-10-21,71.2,54.1,40.5,52.2,44.2,38.6,99,73,34,30.13,29.96,8,1,15,0.00
2013-10-22,66.4,58.5,50.9,53.8,48.4,43.1,85,70,57,29.85,29.79,3,0,6,0.00
2013-10-23,60.3,49.9,44.2,48.2,41.5,35.9,97,74,48,29.85,29.61,5,0,8,0.12
2013-10-24,55.9,44.4,36.0,39.2,33.3,25.4,95,67,38,30.11,29.85,7,1,11,0.01
2013-10-25,57.2,44.0,34.7,37.5,33.0,30.4,87,67,43,30.31,30.11,6,1,12,0.00
2013-10-26,60.1,45.4,32.0,35.8,31.1,26.6,92,61,34,30.29,29.91,10,1,14,0.00
2013-10-27,64.4,50.0,40.5,40.7,37.2,33.6,91,63,38,30.14,29.91,6,1,11,0.00
2013-10-28,70.3,50.2,37.8,48.0,42.2,36.3,97,77,43,30.27,30.13,3,0,4,0.00
2013-10-29,68.7,51.0,41.2,49.0,44.2,40.9,99,80,45,30.35,30.25,4,0,5,0.00
2013-10-30,66.9,55.3,49.1,58.8,53.1,48.3,99,93,73,30.31,30.13,4,0,7,0.15
2013-10-31,70.2,61.2,52.0,62.6,57.7,51.4,99,89,70,30.18,29.77,6,1,10,0.01
2013-11-1,76.6,66.5,58.5,64.2,60.8,57.4,98,82,60,29.77,29.58,14,2,25,0.18
2013-11-2,73.8,59.9,47.8,60.6,48.5,40.9,99,70,41,29.86,29.61,4,1,9,0.06
2013-11-3,59.4,47.9,40.6,43.1,35.3,17.7,90,65,24,30.45,29.85,12,2,15,0.05
2013-11-4,47.7,38.6,31.6,31.4,25.6,19.1,82,60,38,30.61,30.44,8,2,11,0.00
2013-11-5,62.4,46.9,36.1,48.4,40.6,31.1,91,79,60,30.59,30.45,4,0,6,0.00
2013-11-6,71.1,57.7,47.5,53.4,50.3,46.7,98,78,53,30.45,30.05,7,1,11,0.00
2013-11-7,64.2,55.4,45.3,57.8,48.2,24.2,96,78,43,30.06,29.83,8,2,14,0.01
2013-11-8,53.8,42.6,33.1,32.7,26.3,21.6,80,54,32,30.30,30.05,7,1,14,0.01
2013-11-9,59.4,44.7,31.5,33.2,28.6,24.4,81,55,30,30.34,30.00,8,1,14,0.00
2013-11-10,68.4,51.2,40.1,37.9,31.0,26.2,71,48,25,30.19,29.90,11,2,16,0.00
2013-11-11,62.1,48.8,34.9,35.1,31.0,26.8,78,52,29,30.29,29.97,7,1,11,0.00
2013-11-12,52.5,41.8,30.4,38.7,24.3,9.4,72,50,31,30.37,29.95,16,3,21,0.00
2013-11-13,45.9,34.5,28.4,22.0,18.5,14.4,69,53,31,30.45,30.36,11,1,16,0.00
2013-11-14,65.1,40.8,26.6,33.0,23.5,16.9,77,53,21,30.38,30.20,5,0,8,0.00
2013-11-15,64.4,45.5,31.3,42.9,32.2,22.8,90,62,34,30.27,30.16,4,0,7,0.00
2013-11-16,53.1,49.0,44.4,50.6,47.5,41.3,99,95,83,30.31,30.21,4,0,5,0.20
2013-11-17,68.5,56.2,50.0,59.9,53.8,49.6,99,92,74,30.22,29.74,9,1,11,0.01
2013-11-18,73.0,61.1,51.6,62.8,39.0,20.1,98,52,17,29.89,29.66,14,3,21,0.10
2013-11-19,52.5,45.6,38.1,29.7,27.3,24.2,60,49,38,30.35,29.89,14,3,18,0.02
2013-11-20,47.7,38.9,33.3,29.9,25.7,21.5,82,59,46,30.55,30.34,12,2,16,0.00
2013-11-21,51.3,42.2,31.8,42.2,35.5,28.3,89,77,64,30.55,30.36,5,1,7,0.00
2013-11-22,62.4,53.4,45.1,52.3,47.5,40.6,90,81,67,30.38,29.97,7,0,10,0.00
2013-11-23,58.8,46.1,33.1,51.6,27.2,10.9,77,49,24,30.16,29.98,12,4,19,0.00
2013-11-24,33.6,28.0,24.1,11.6,3.5,-1.3,50,35,24,30.50,30.16,14,4,24,0.00
2013-11-25,41.4,29.0,19.6,15.8,8.3,1.7,60,42,23,30.56,30.34,8,1,11,0.00
2013-11-26,57.2,38.3,33.3,56.7,29.5,10.7,99,74,36,30.34,29.50,12,2,16,1.41
2013-11-27,57.2,39.0,30.6,56.9,34.6,14.6,99,86,51,30.00,29.45,17,0,19,2.11
2013-11-28,40.8,31.5,27.0,23.8,14.1,5.2,79,49,26,30.47,30.00,2,0,4,0.22
2013-11-29,44.1,33.7,25.7,22.4,19.8,17.1,76,58,36,30.70,30.44,8,1,9,0.00
2013-11-30,42.1,32.5,27.7,26.0,20.9,16.4,78,63,44,30.70,30.36,5,1,8,0.00
2013-12-1,51.3,36.2,24.4,35.3,28.7,21.1,88,75,49,30.36,30.00,6,0,8,0.00
2013-12-2,48.6,42.5,38.7,39.2,35.5,33.1,91,77,61,30.01,29.85,3,0,5,0.00
2013-12-3,61.7,45.8,38.5,39.6,36.3,34.1,96,71,43,29.98,29.85,5,0,8,0.00
2013-12-4,53.4,47.1,39.2,49.6,44.4,38.9,99,91,74,30.07,29.97,4,0,5,0.00
2013-12-5,65.7,56.1,49.8,60.8,53.1,48.9,99,90,70,30.06,29.90,11,1,16,0.00
2013-12-6,66.0,51.5,38.1,61.2,49.3,36.9,96,92,85,30.15,29.85,12,3,15,0.39
2013-12-7,44.8,37.7,30.9,36.9,29.8,20.2,96,74,57,30.52,30.09,9,2,13,0.36
2013-12-8,32.5,30.3,27.9,31.0,23.4,17.6,94,76,59,30.57,30.25,10,2,11,0.01
2013-12-9,35.6,33.6,32.2,33.5,31.9,30.4,95,94,91,30.27,30.01,4,0,6,0.23
2013-12-10,40.6,32.9,27.1,37.1,28.8,18.0,96,86,54,30.21,29.96,7,1,11,0.14
2013-12-11,46.4,32.1,25.3,24.5,18.1,11.7,78,57,34,30.40,30.21,8,1,11,0.14
2013-12-12,35.4,28.1,23.7,19.9,9.4,0.9,77,46,26,30.42,30.22,8,1,12,0.01
2013-12-13,46.9,32.9,23.7,19.4,13.0,7.9,59,45,24,30.30,30.18,8,1,14,0.01
2013-12-14,41.7,36.6,30.9,39.3,29.8,18.8,97,77,57,30.32,29.66,9,2,12,0.56
2013-12-15,49.5,38.2,31.1,37.5,28.9,18.7,97,71,47,29.93,29.60,11,2,18,0.36
2013-12-16,37.0,33.5,29.7,24.5,20.2,14.2,71,58,44,30.18,29.92,8,1,10,0.01
2013-12-17,38.1,34.5,32.2,30.9,26.1,21.1,86,71,61,30.16,29.91,6,1,11,0.00
2013-12-18,42.1,33.4,26.2,27.4,21.4,15.8,89,63,39,30.22,29.96,10,1,14,0.02
2013-12-19,62.8,42.6,25.5,33.3,25.9,19.1,84,56,26,30.19,30.04,9,1,16,0.01
2013-12-20,61.2,54.5,48.2,49.8,35.5,28.0,72,49,34,30.09,29.98,10,2,15,0.00
2013-12-21,75.4,63.3,56.1,56.6,50.6,44.0,84,64,49,30.00,29.88,14,4,21,0.00
2013-12-22,71.6,64.3,57.4,62.0,58.9,52.9,94,83,70,29.99,29.81,15,4,27,0.44
2013-12-23,63.5,54.1,39.9,62.5,49.9,27.6,97,86,60,30.20,29.90,8,2,14,0.55
2013-12-24,42.4,34.6,24.1,28.3,17.9,-2.7,66,51,26,30.45,30.17,13,4,19,0.01
2013-12-25,37.0,25.5,18.7,15.7,8.9,2.2,70,50,28,30.55,30.38,7,1,9,0.00
2013-12-26,49.1,32.2,22.6,24.7,19.9,15.6,85,62,35,30.38,30.20,8,1,11,0.00
2013-12-27,53.1,36.9,25.5,28.1,18.3,12.6,67,49,22,30.41,30.29,10,1,12,0.00
2013-12-28,62.4,44.8,30.2,29.2,22.8,19.4,65,44,22,30.31,30.09,9,1,12,0.00
2013-12-29,49.3,45.6,41.5,47.6,39.5,25.8,99,82,41,30.09,29.49,10,2,15,0.93
2013-12-30,46.0,39.3,32.7,40.2,30.8,16.8,97,73,51,30.17,29.79,8,2,13,0.02
2013-12-31,46.6,34.9,27.1,29.1,18.9,11.8,66,52,34,30.32,30.07,12,2,18,0.00
2014-1-1,46.6,34.5,25.3,33.8,24.0,11.8,87,66,49,30.41,30.12,8,1,14,0.01
2014-1-2,36.5,33.5,27.7,33.1,30.4,23.8,93,88,82,30.13,29.57,8,2,11,0.00